Year,Month,Day,Hour,Minute,Value (Times are PST for temperature in C)
2005,08,08,00,00,16.60
2005,08,08,00,01,16.60
2005,08,08,00,02,16.60
2005,08,08,00,03,16.60
2005,08,08,00,04,16.60
2005,08,08,00,05,16.50
2005,08,08,00,06,16.40
2005,08,08,00,07,16.40
2005,08,08,00,08,16.40
2005,08,08,00,09,16.40
2005,08,08,00,10,16.40
2005,08,08,00,11,16.40
2005,08,08,00,12,16.40
2005,08,08,00,14,16.40
2005,08,08,00,16,16.40
2005,08,08,00,19,16.30
2005,08,08,00,21,16.30
2005,08,08,00,23,16.30
2005,08,08,00,25,16.30
2005,08,08,00,26,16.30
2005,08,08,00,28,16.30
2005,08,08,00,30,16.30
2005,08,08,00,32,16.20
2005,08,08,00,35,16.10
2005,08,08,00,36,16.10
2005,08,08,00,38,16.10
2005,08,08,00,41,16.10
2005,08,08,00,43,16.10
2005,08,08,00,44,16.10
2005,08,08,00,45,16.10
2005,08,08,00,46,16.10
2005,08,08,00,47,16.10
2005,08,08,00,48,16.10
2005,08,08,00,50,16.00
2005,08,08,00,51,15.90
2005,08,08,00,52,15.90
2005,08,08,00,53,15.90
2005,08,08,00,54,15.90
2005,08,08,00,55,15.80
2005,08,08,00,56,15.80
2005,08,08,00,57,15.80
2005,08,08,00,59,15.80
2005,08,08,01,00,15.80
2005,08,08,01,01,15.80
2005,08,08,01,03,15.80
2005,08,08,01,04,15.80
2005,08,08,01,05,15.80
2005,08,08,01,07,15.70
2005,08,08,01,08,15.70
2005,08,08,01,09,15.70
2005,08,08,01,11,15.70
2005,08,08,01,12,15.70
2005,08,08,01,14,15.60
2005,08,08,01,15,15.60
2005,08,08,01,17,15.60
2005,08,08,01,18,15.60
2005,08,08,01,22,15.50
2005,08,08,01,24,15.50
2005,08,08,01,25,15.50
2005,08,08,01,26,15.40
2005,08,08,01,28,15.40
2005,08,08,01,29,15.40
2005,08,08,01,30,15.40
2005,08,08,01,32,15.40
2005,08,08,01,34,15.50
2005,08,08,01,38,15.50
2005,08,08,01,45,15.50
2005,08,08,01,50,15.50
2005,08,08,01,51,15.50
2005,08,08,01,52,15.50
2005,08,08,01,54,15.50
2005,08,08,01,55,15.50
2005,08,08,01,56,15.50
2005,08,08,01,57,15.50
2005,08,08,01,58,15.40
2005,08,08,01,59,15.40
2005,08,08,02,00,15.40
2005,08,08,02,01,15.40
2005,08,08,02,02,15.40
2005,08,08,02,03,15.30
2005,08,08,02,04,15.30
2005,08,08,02,05,15.30
2005,08,08,02,06,15.40
2005,08,08,02,07,15.40
2005,08,08,02,08,15.40
2005,08,08,02,09,15.40
2005,08,08,02,10,15.40
2005,08,08,02,11,15.40
2005,08,08,02,12,15.40
2005,08,08,02,13,15.40
2005,08,08,02,14,15.40
2005,08,08,02,15,15.40
2005,08,08,02,16,15.40
2005,08,08,02,17,15.40
2005,08,08,02,18,15.50
2005,08,08,02,19,15.50
2005,08,08,02,20,15.50
2005,08,08,02,21,15.50
2005,08,08,02,22,15.50
2005,08,08,02,23,15.50
2005,08,08,02,24,15.50
2005,08,08,02,25,15.50
2005,08,08,02,26,15.50
2005,08,08,02,27,15.40
2005,08,08,02,28,15.40
2005,08,08,02,29,15.40
2005,08,08,02,30,15.40
2005,08,08,02,31,15.40
2005,08,08,02,32,15.40
2005,08,08,02,33,15.40
2005,08,08,02,34,15.40
2005,08,08,02,35,15.40
2005,08,08,02,36,15.40
2005,08,08,02,37,15.40
2005,08,08,02,38,15.40
2005,08,08,02,39,15.30
2005,08,08,02,40,15.30
2005,08,08,02,41,15.30
2005,08,08,02,42,15.30
2005,08,08,02,43,15.20
2005,08,08,02,44,15.20
2005,08,08,02,45,15.20
2005,08,08,02,46,15.10
2005,08,08,02,47,15.10
2005,08,08,02,48,15.00
2005,08,08,02,49,15.00
2005,08,08,02,50,14.90
2005,08,08,02,51,14.80
2005,08,08,02,52,14.80
2005,08,08,02,53,14.70
2005,08,08,02,54,14.70
2005,08,08,02,55,14.60
2005,08,08,02,56,14.60
2005,08,08,02,57,14.50
2005,08,08,02,58,14.50
2005,08,08,02,59,14.40
2005,08,08,03,00,14.40
2005,08,08,03,01,14.30
2005,08,08,03,02,14.30
2005,08,08,03,03,14.30
2005,08,08,03,04,14.20
2005,08,08,03,05,14.20
2005,08,08,03,06,14.20
2005,08,08,03,07,14.20
2005,08,08,03,08,14.20
2005,08,08,03,09,14.20
2005,08,08,03,10,14.20
2005,08,08,03,11,14.20
2005,08,08,03,12,14.20
2005,08,08,03,13,14.20
2005,08,08,03,14,14.20
2005,08,08,03,15,14.20
2005,08,08,03,16,14.20
2005,08,08,03,17,14.20
2005,08,08,03,18,14.20
2005,08,08,03,19,14.20
2005,08,08,03,20,14.20
2005,08,08,03,21,14.20
2005,08,08,03,22,14.20
2005,08,08,03,23,14.20
2005,08,08,03,24,14.10
2005,08,08,03,25,14.10
2005,08,08,03,26,14.10
2005,08,08,03,27,14.10
2005,08,08,03,28,14.10
2005,08,08,03,29,14.10
2005,08,08,03,30,14.10
2005,08,08,03,31,14.10
2005,08,08,03,32,14.10
2005,08,08,03,33,14.10
2005,08,08,03,34,14.10
2005,08,08,03,35,14.10
2005,08,08,03,36,14.20
2005,08,08,03,37,14.20
2005,08,08,03,38,14.20
2005,08,08,03,39,14.20
2005,08,08,03,40,14.20
2005,08,08,03,41,14.20
2005,08,08,03,42,14.20
2005,08,08,03,43,14.20
2005,08,08,03,44,14.20
2005,08,08,03,45,14.20
2005,08,08,03,46,14.20
2005,08,08,03,47,14.20
2005,08,08,03,48,14.20
2005,08,08,03,49,14.20
2005,08,08,03,50,14.20
2005,08,08,03,51,14.20
2005,08,08,03,52,14.20
2005,08,08,03,53,14.20
2005,08,08,03,54,14.20
2005,08,08,03,55,14.20
2005,08,08,03,56,14.20
2005,08,08,03,57,14.20
2005,08,08,03,58,14.20
2005,08,08,03,59,14.20
2005,08,08,04,00,14.20
2005,08,08,04,01,14.20
2005,08,08,04,02,14.20
2005,08,08,04,03,14.20
2005,08,08,04,04,14.20
2005,08,08,04,05,14.20
2005,08,08,04,06,14.20
2005,08,08,04,07,14.20
2005,08,08,04,08,14.20
2005,08,08,04,09,14.20
2005,08,08,04,10,14.20
2005,08,08,04,11,14.20
2005,08,08,04,12,14.20
2005,08,08,04,13,14.20
2005,08,08,04,14,14.20
2005,08,08,04,15,14.20
2005,08,08,04,16,14.30
2005,08,08,04,17,14.20
2005,08,08,04,18,14.20
2005,08,08,04,19,14.20
2005,08,08,04,20,14.20
2005,08,08,04,21,14.20
2005,08,08,04,22,14.20
2005,08,08,04,23,14.20
2005,08,08,04,24,14.20
2005,08,08,04,25,14.20
2005,08,08,04,26,14.20
2005,08,08,04,27,14.20
2005,08,08,04,28,14.20
2005,08,08,04,29,14.20
2005,08,08,04,30,14.20
2005,08,08,04,31,14.20
2005,08,08,04,32,14.20
2005,08,08,04,33,14.20
2005,08,08,04,34,14.20
2005,08,08,04,35,14.10
2005,08,08,04,36,14.10
2005,08,08,04,37,14.10
2005,08,08,04,38,14.10
2005,08,08,04,39,14.10
2005,08,08,04,40,14.10
2005,08,08,04,41,14.00
2005,08,08,04,42,14.00
2005,08,08,04,43,14.00
2005,08,08,04,44,14.00
2005,08,08,04,45,14.00
2005,08,08,04,46,14.00
2005,08,08,04,47,14.00
2005,08,08,04,48,14.00
2005,08,08,04,49,13.90
2005,08,08,04,50,13.90
2005,08,08,04,51,13.90
2005,08,08,04,52,13.90
2005,08,08,04,53,13.90
2005,08,08,04,54,13.80
2005,08,08,04,55,13.70
2005,08,08,04,56,13.70
2005,08,08,04,57,13.70
2005,08,08,04,58,13.70
2005,08,08,04,59,13.60
2005,08,08,05,00,13.60
2005,08,08,05,01,13.50
2005,08,08,05,02,13.50
2005,08,08,05,03,13.40
2005,08,08,05,04,13.40
2005,08,08,05,05,13.40
2005,08,08,05,06,13.30
2005,08,08,05,07,13.30
2005,08,08,05,08,13.30
2005,08,08,05,09,13.30
2005,08,08,05,10,13.20
2005,08,08,05,11,13.20
2005,08,08,05,12,13.20
2005,08,08,05,13,13.20
2005,08,08,05,14,13.20
2005,08,08,05,15,13.20
2005,08,08,05,16,13.10
2005,08,08,05,17,13.10
2005,08,08,05,18,13.10
2005,08,08,05,19,13.10
2005,08,08,05,20,13.10
2005,08,08,05,21,13.10
2005,08,08,05,22,13.10
2005,08,08,05,23,13.10
2005,08,08,05,24,13.10
2005,08,08,05,25,13.10
2005,08,08,05,26,13.10
2005,08,08,05,27,13.10
2005,08,08,05,28,13.10
2005,08,08,05,29,13.10
2005,08,08,05,30,13.10
2005,08,08,05,31,13.10
2005,08,08,05,32,13.20
2005,08,08,05,33,13.20
2005,08,08,05,34,13.20
2005,08,08,05,35,13.10
2005,08,08,05,36,13.10
2005,08,08,05,37,13.20
2005,08,08,05,38,13.20
2005,08,08,05,39,13.20
2005,08,08,05,40,13.20
2005,08,08,05,41,13.30
2005,08,08,05,42,13.30
2005,08,08,05,43,13.30
2005,08,08,05,44,13.30
2005,08,08,05,45,13.30
2005,08,08,05,46,13.30
2005,08,08,05,47,13.30
2005,08,08,05,48,13.30
2005,08,08,05,49,13.30
2005,08,08,05,50,13.30
2005,08,08,05,51,13.30
2005,08,08,05,52,13.30
2005,08,08,05,53,13.30
2005,08,08,05,54,13.30
2005,08,08,05,55,13.30
2005,08,08,05,56,13.30
2005,08,08,05,57,13.30
2005,08,08,05,58,13.30
2005,08,08,05,59,13.20
2005,08,08,06,00,13.20
2005,08,08,06,01,13.20
2005,08,08,06,02,13.20
2005,08,08,06,03,13.20
2005,08,08,06,04,13.20
2005,08,08,06,05,13.20
2005,08,08,06,06,13.20
2005,08,08,06,07,13.20
2005,08,08,06,08,13.20
2005,08,08,06,09,13.10
2005,08,08,06,10,13.10
2005,08,08,06,11,13.10
2005,08,08,06,12,13.10
2005,08,08,06,13,13.10
2005,08,08,06,14,13.10
2005,08,08,06,15,13.10
2005,08,08,06,16,13.10
2005,08,08,06,17,13.10
2005,08,08,06,18,13.10
2005,08,08,06,19,13.10
2005,08,08,06,20,13.10
2005,08,08,06,21,13.10
2005,08,08,06,22,13.10
2005,08,08,06,23,13.20
2005,08,08,06,24,13.20
2005,08,08,06,25,13.20
2005,08,08,06,26,13.30
2005,08,08,06,27,13.30
2005,08,08,06,28,13.30
2005,08,08,06,29,13.30
2005,08,08,06,30,13.40
2005,08,08,06,31,13.50
2005,08,08,06,32,13.60
2005,08,08,06,33,13.60
2005,08,08,06,34,13.70
2005,08,08,06,35,13.70
2005,08,08,06,36,13.70
2005,08,08,06,37,13.80
2005,08,08,06,38,13.80
2005,08,08,06,39,13.90
2005,08,08,06,40,13.90
2005,08,08,06,41,14.00
2005,08,08,06,42,14.00
2005,08,08,06,43,14.10
2005,08,08,06,44,14.10
2005,08,08,06,45,14.10
2005,08,08,06,46,14.10
2005,08,08,06,47,14.10
2005,08,08,06,48,14.10
2005,08,08,06,49,14.10
2005,08,08,06,50,14.10
2005,08,08,06,51,14.00
2005,08,08,06,52,14.00
2005,08,08,06,53,14.00
2005,08,08,06,54,14.00
2005,08,08,06,55,14.00
2005,08,08,06,56,14.00
2005,08,08,06,57,14.00
2005,08,08,06,58,14.00
2005,08,08,06,59,14.10
2005,08,08,07,00,14.10
2005,08,08,07,01,14.10
2005,08,08,07,02,14.10
2005,08,08,07,03,14.10
2005,08,08,07,04,14.20
2005,08,08,07,05,14.20
2005,08,08,07,06,14.20
2005,08,08,07,07,14.30
2005,08,08,07,08,14.40
2005,08,08,07,09,14.40
2005,08,08,07,10,14.40
2005,08,08,07,11,14.50
2005,08,08,07,12,14.60
2005,08,08,07,13,14.60
2005,08,08,07,14,14.70
2005,08,08,07,15,14.70
2005,08,08,07,16,14.70
2005,08,08,07,17,14.80
2005,08,08,07,18,14.90
2005,08,08,07,19,15.00
2005,08,08,07,20,15.10
2005,08,08,07,21,15.20
2005,08,08,07,22,15.20
2005,08,08,07,23,15.20
2005,08,08,07,24,15.30
2005,08,08,07,25,15.30
2005,08,08,07,26,15.40
2005,08,08,07,27,15.40
2005,08,08,07,28,15.40
2005,08,08,07,29,15.40
2005,08,08,07,30,15.40
2005,08,08,07,31,15.40
2005,08,08,07,32,15.50
2005,08,08,07,33,15.50
2005,08,08,07,34,15.50
2005,08,08,07,35,15.60
2005,08,08,07,36,15.70
2005,08,08,07,37,15.80
2005,08,08,07,38,15.80
2005,08,08,07,39,15.90
2005,08,08,07,40,16.00
2005,08,08,07,41,16.10
2005,08,08,07,42,16.20
2005,08,08,07,43,16.30
2005,08,08,07,44,16.30
2005,08,08,07,45,16.40
2005,08,08,07,46,16.40
2005,08,08,07,47,16.40
2005,08,08,07,48,16.40
2005,08,08,07,49,16.40
2005,08,08,07,50,16.40
2005,08,08,07,51,16.40
2005,08,08,07,52,16.40
2005,08,08,07,53,16.40
2005,08,08,07,54,16.40
2005,08,08,07,55,16.40
2005,08,08,07,56,16.40
2005,08,08,07,57,16.40
2005,08,08,07,58,16.60
2005,08,08,07,59,16.60
2005,08,08,08,00,16.60
2005,08,08,08,01,16.70
2005,08,08,08,02,16.70
2005,08,08,08,03,16.70
2005,08,08,08,04,16.80
2005,08,08,08,05,16.80
2005,08,08,08,06,16.80
2005,08,08,08,07,16.90
2005,08,08,08,08,16.90
2005,08,08,08,09,16.90
2005,08,08,08,10,17.00
2005,08,08,08,11,17.10
2005,08,08,08,12,17.20
2005,08,08,08,13,17.20
2005,08,08,08,14,17.30
2005,08,08,08,15,17.30
2005,08,08,08,16,17.30
2005,08,08,08,17,17.30
2005,08,08,08,18,17.40
2005,08,08,08,19,17.50
2005,08,08,08,20,17.60
2005,08,08,08,21,17.70
2005,08,08,08,22,17.70
2005,08,08,08,23,17.80
2005,08,08,08,24,17.90
2005,08,08,08,25,17.90
2005,08,08,08,26,18.00
2005,08,08,08,27,18.10
2005,08,08,08,28,18.20
2005,08,08,08,29,18.20
2005,08,08,08,30,18.30
2005,08,08,08,31,18.40
2005,08,08,08,32,18.40
2005,08,08,08,33,18.40
2005,08,08,08,34,18.50
2005,08,08,08,35,18.50
2005,08,08,08,36,18.60
2005,08,08,08,37,18.60
2005,08,08,08,38,18.60
2005,08,08,08,39,18.60
2005,08,08,08,40,18.70
2005,08,08,08,41,18.80
2005,08,08,08,42,18.80
2005,08,08,08,43,18.90
2005,08,08,08,44,18.90
2005,08,08,08,45,19.00
2005,08,08,08,46,19.10
2005,08,08,08,47,19.10
2005,08,08,08,48,19.10
2005,08,08,08,49,19.10
2005,08,08,08,50,19.10
2005,08,08,08,51,19.10
2005,08,08,08,52,19.20
2005,08,08,08,53,19.30
2005,08,08,08,54,19.40
2005,08,08,08,55,19.40
2005,08,08,08,56,19.50
2005,08,08,08,57,19.40
2005,08,08,08,58,19.40
2005,08,08,08,59,19.50
2005,08,08,09,00,19.50
2005,08,08,09,01,19.60
2005,08,08,09,02,19.60
2005,08,08,09,03,19.70
2005,08,08,09,04,19.80
2005,08,08,09,05,19.80
2005,08,08,09,06,19.90
2005,08,08,09,07,19.90
2005,08,08,09,08,20.00
2005,08,08,09,09,20.10
2005,08,08,09,10,20.20
2005,08,08,09,11,20.20
2005,08,08,09,12,20.40
2005,08,08,09,13,20.50
2005,08,08,09,14,20.60
2005,08,08,09,15,20.50
2005,08,08,09,16,20.50
2005,08,08,09,17,20.40
2005,08,08,09,18,20.40
2005,08,08,09,19,20.50
2005,08,08,09,20,20.50
2005,08,08,09,21,20.50
2005,08,08,09,22,20.50
2005,08,08,09,23,20.50
2005,08,08,09,24,20.50
2005,08,08,09,25,20.50
2005,08,08,09,26,20.50
2005,08,08,09,27,20.60
2005,08,08,09,28,20.60
2005,08,08,09,29,20.60
2005,08,08,09,30,20.60
2005,08,08,09,31,20.60
2005,08,08,09,32,20.60
2005,08,08,09,33,20.50
2005,08,08,09,34,20.40
2005,08,08,09,35,20.30
2005,08,08,09,36,20.20
2005,08,08,09,37,20.10
2005,08,08,09,38,20.00
2005,08,08,09,39,19.90
2005,08,08,09,40,19.80
2005,08,08,09,41,19.80
2005,08,08,09,42,19.70
2005,08,08,09,43,19.60
2005,08,08,09,44,19.50
2005,08,08,09,45,19.50
2005,08,08,09,46,19.40
2005,08,08,09,47,19.50
2005,08,08,09,48,19.50
2005,08,08,09,49,19.60
2005,08,08,09,50,19.80
2005,08,08,09,51,19.80
2005,08,08,09,52,19.90
2005,08,08,09,53,19.80
2005,08,08,09,54,19.80
2005,08,08,09,55,19.80
2005,08,08,09,56,19.80
2005,08,08,09,57,19.80
2005,08,08,09,58,19.80
2005,08,08,09,59,19.90
2005,08,08,10,00,19.90
2005,08,08,10,01,19.90
2005,08,08,10,02,19.90
2005,08,08,10,03,19.90
2005,08,08,10,04,19.90
2005,08,08,10,05,19.90
2005,08,08,10,06,19.90
2005,08,08,10,07,19.90
2005,08,08,10,08,19.80
2005,08,08,10,09,19.80
2005,08,08,10,10,19.80
2005,08,08,10,11,19.90
2005,08,08,10,12,19.90
2005,08,08,10,13,19.90
2005,08,08,10,14,19.80
2005,08,08,10,15,19.70
2005,08,08,10,16,19.70
2005,08,08,10,17,19.80
2005,08,08,10,18,19.80
2005,08,08,10,19,19.90
2005,08,08,10,20,20.00
2005,08,08,10,21,20.10
2005,08,08,10,22,20.10
2005,08,08,10,23,20.10
2005,08,08,10,24,20.10
2005,08,08,10,25,20.10
2005,08,08,10,26,20.10
2005,08,08,10,27,20.00
2005,08,08,10,28,20.00
2005,08,08,10,29,20.10
2005,08,08,10,30,20.10
2005,08,08,10,31,20.10
2005,08,08,10,32,20.20
2005,08,08,10,33,20.30
2005,08,08,10,34,20.40
2005,08,08,10,35,20.50
2005,08,08,10,36,20.50
2005,08,08,10,37,20.60
2005,08,08,10,38,20.50
2005,08,08,10,39,20.50
2005,08,08,10,40,20.60
2005,08,08,10,41,20.60
2005,08,08,10,42,20.70
2005,08,08,10,43,20.70
2005,08,08,10,44,20.80
2005,08,08,10,45,20.90
2005,08,08,10,46,20.90
2005,08,08,10,47,20.70
2005,08,08,10,48,20.70
2005,08,08,10,49,20.80
2005,08,08,10,50,20.70
2005,08,08,10,51,20.70
2005,08,08,10,52,20.70
2005,08,08,10,53,20.80
2005,08,08,10,54,20.80
2005,08,08,10,55,20.80
2005,08,08,10,56,20.90
2005,08,08,10,57,20.90
2005,08,08,10,58,21.00
2005,08,08,10,59,21.10
2005,08,08,11,00,21.00
2005,08,08,11,01,21.10
2005,08,08,11,02,21.10
2005,08,08,11,03,21.10
2005,08,08,11,04,21.10
2005,08,08,11,05,21.20
2005,08,08,11,06,21.30
2005,08,08,11,07,21.30
2005,08,08,11,08,21.30
2005,08,08,11,09,21.30
2005,08,08,11,10,21.20
2005,08,08,11,11,21.20
2005,08,08,11,12,21.10
2005,08,08,11,13,21.10
2005,08,08,11,14,21.00
2005,08,08,11,15,21.10
2005,08,08,11,16,21.10
2005,08,08,11,17,21.20
2005,08,08,11,18,21.20
2005,08,08,11,19,21.20
2005,08,08,11,20,21.30
2005,08,08,11,21,21.30
2005,08,08,11,22,21.30
2005,08,08,11,23,21.30
2005,08,08,11,24,21.30
2005,08,08,11,25,21.30
2005,08,08,11,26,21.30
2005,08,08,11,27,21.20
2005,08,08,11,28,21.20
2005,08,08,11,29,21.10
2005,08,08,11,30,21.00
2005,08,08,11,31,20.90
2005,08,08,11,32,20.70
2005,08,08,11,33,20.60
2005,08,08,11,34,20.50
2005,08,08,11,35,20.40
2005,08,08,11,36,20.40
2005,08,08,11,37,20.40
2005,08,08,11,38,20.40
2005,08,08,11,39,20.40
2005,08,08,11,40,20.40
2005,08,08,11,41,20.40
2005,08,08,11,42,20.50
2005,08,08,11,43,20.60
2005,08,08,11,44,20.60
2005,08,08,11,45,20.60
2005,08,08,11,46,20.60
2005,08,08,11,47,20.50
2005,08,08,11,48,20.50
2005,08,08,11,49,20.50
2005,08,08,11,50,20.40
2005,08,08,11,51,20.20
2005,08,08,11,52,20.20
2005,08,08,11,53,20.20
2005,08,08,11,54,20.20
2005,08,08,11,55,20.20
2005,08,08,11,56,20.20
2005,08,08,11,57,20.20
2005,08,08,11,58,20.20
2005,08,08,11,59,20.20
2005,08,08,12,00,20.20
2005,08,08,12,01,20.20
2005,08,08,12,02,20.20
2005,08,08,12,03,20.20
2005,08,08,12,04,20.10
2005,08,08,12,05,20.10
2005,08,08,12,06,19.90
2005,08,08,12,07,19.90
2005,08,08,12,08,19.90
2005,08,08,12,09,19.80
2005,08,08,12,10,19.80
2005,08,08,12,11,19.90
2005,08,08,12,12,19.90
2005,08,08,12,13,19.90
2005,08,08,12,14,19.90
2005,08,08,12,15,19.90
2005,08,08,12,16,20.10
2005,08,08,12,17,20.30
2005,08,08,12,18,20.30
2005,08,08,12,19,20.30
2005,08,08,12,20,20.30
2005,08,08,12,21,20.30
2005,08,08,12,22,20.30
2005,08,08,12,23,20.50
2005,08,08,12,24,20.60
2005,08,08,12,25,20.70
2005,08,08,12,26,20.80
2005,08,08,12,27,20.80
2005,08,08,12,28,20.80
2005,08,08,12,29,20.70
2005,08,08,12,30,20.60
2005,08,08,12,31,20.60
2005,08,08,12,32,20.60
2005,08,08,12,33,20.60
2005,08,08,12,34,20.50
2005,08,08,12,35,20.40
2005,08,08,12,36,20.30
2005,08,08,12,37,20.30
2005,08,08,12,38,20.30
2005,08,08,12,39,20.30
2005,08,08,12,40,20.20
2005,08,08,12,41,20.20
2005,08,08,12,42,20.20
2005,08,08,12,43,20.20
2005,08,08,12,44,20.10
2005,08,08,12,45,20.10
2005,08,08,12,46,20.20
2005,08,08,12,47,20.20
2005,08,08,12,48,20.30
2005,08,08,12,49,20.50
2005,08,08,12,50,20.50
2005,08,08,12,51,20.60
2005,08,08,12,52,20.70
2005,08,08,12,53,20.70
2005,08,08,12,54,20.80
2005,08,08,12,55,20.90
2005,08,08,12,56,21.00
2005,08,08,12,57,21.10
2005,08,08,12,58,21.30
2005,08,08,12,59,21.30
2005,08,08,13,00,21.20
2005,08,08,13,01,21.10
2005,08,08,13,02,21.00
2005,08,08,13,03,20.90
2005,08,08,13,04,20.90
2005,08,08,13,05,20.90
2005,08,08,13,06,21.00
2005,08,08,13,07,21.10
2005,08,08,13,08,21.10
2005,08,08,13,09,21.10
2005,08,08,13,10,21.00
2005,08,08,13,11,21.10
2005,08,08,13,12,21.20
2005,08,08,13,13,21.30
2005,08,08,13,14,21.40
2005,08,08,13,15,21.50
2005,08,08,13,16,21.60
2005,08,08,13,17,21.60
2005,08,08,13,18,21.60
2005,08,08,13,19,21.60
2005,08,08,13,20,21.60
2005,08,08,13,21,21.60
2005,08,08,13,22,21.70
2005,08,08,13,23,21.60
2005,08,08,13,24,21.70
2005,08,08,13,25,21.80
2005,08,08,13,26,21.90
2005,08,08,13,27,21.90
2005,08,08,13,28,21.90
2005,08,08,13,29,21.80
2005,08,08,13,30,21.70
2005,08,08,13,31,21.60
2005,08,08,13,32,21.60
2005,08,08,13,33,21.60
2005,08,08,13,34,21.60
2005,08,08,13,35,21.60
2005,08,08,13,36,21.70
2005,08,08,13,37,21.70
2005,08,08,13,38,21.70
2005,08,08,13,39,21.80
2005,08,08,13,40,21.90
2005,08,08,13,41,22.10
2005,08,08,13,42,22.10
2005,08,08,13,43,22.20
2005,08,08,13,44,22.20
2005,08,08,13,45,22.30
2005,08,08,13,46,22.40
2005,08,08,13,47,22.50
2005,08,08,13,48,22.60
2005,08,08,13,49,22.70
2005,08,08,13,50,22.70
2005,08,08,13,51,22.80
2005,08,08,13,52,22.80
2005,08,08,13,53,22.80
2005,08,08,13,54,22.90
2005,08,08,13,55,22.90
2005,08,08,13,56,22.80
